{"data":{"norad_id":62838,"epoch":"2026-09-21T05:05:06.851040Z","epoch_age_seconds":106678,"freshness":"FRESH","line1":"1 62838U 25019K   26264.21188485  .00166616  00000+0  12684-2 0  9999","line2":"2 62838  43.0001 207.2271 0002298 262.0485  98.0122 15.70984444 94636","mean_motion":15.70984444,"eccentricity":0.0002298,"inclination_deg":43.0001,"raan_deg":207.2271,"arg_perigee_deg":262.0485,"mean_anomaly_deg":98.0122,"bstar":0.0012684,"rev_number":9463,"period_min":91.662269827033,"perigee_km":354.5347216339,"apogee_km":357.629768799,"semimajor_km":6734.2192452165,"source":"CELESTRAK","updated_at":"2026-09-22T09:00:49.672837Z"}}